This is the latest recevied weather packets stored in our database for station/object KB1JL-13. If no packets are shown the sender has not sent any weather packets the latest 10 day(s).
| Time | Temp. | Humidity | Pressure | Rain* | Wind** | Luminosity | Snow |
|---|---|---|---|---|---|---|---|
| 1777761713 | 13.89° C | 60% | 1021.2 hPa | 0 mm | - | 38 W/m² | - |
| 1777761411 | 13.33° C | 60% | 1021.2 hPa | 0 mm | - | 35 W/m² | - |
| 1777761109 | 13.33° C | 60% | 1021.2 hPa | 0 mm | - | 42 W/m² | - |
| 1777760806 | 13.89° C | 60% | 1021.6 hPa | 0 mm | - | 65 W/m² | - |
| 1777760503 | 13.89° C | 59% | 1021.2 hPa | 0 mm | - | 95 W/m² | - |
| 1777760198 | 13.89° C | 61% | 1021.6 hPa | 0 mm | - | 96 W/m² | - |
| 1777759895 | 13.89° C | 61% | 1020.9 hPa | 0 mm | - | 105 W/m² | - |
| 1777759591 | 13.89° C | 59% | 1021.2 hPa | 0 mm | - | 107 W/m² | - |
| 1777759282 | 13.33° C | 62% | 1021.2 hPa | 0 mm | - | 115 W/m² | - |
| 1777758979 | 14.44° C | 60% | 1020.9 hPa | 0 mm | - | 118 W/m² | - |
| 1777758676 | 14.44° C | 63% | 1021.2 hPa | 0 mm | - | 175 W/m² | - |
| 1777758368 | 15° C | 59% | 1021.2 hPa | 0 mm | - | 112 W/m² | - |
| 1777758065 | 14.44° C | 59% | 1021.2 hPa | 0 mm | - | 317 W/m² | - |
| 1777757762 | 14.44° C | 60% | 1021.2 hPa | 0 mm | - | 291 W/m² | - |
| 1777757459 | 13.89° C | 62% | 1021.2 hPa | 0 mm | - | 212 W/m² | - |
| 1777757158 | 13.89° C | 63% | 1021.2 hPa | 0 mm | - | 239 W/m² | - |
| 1777756856 | 13.89° C | 63% | 1021.6 hPa | 0 mm | - | 125 W/m² | - |
| 1777756551 | 13.89° C | 63% | 1021.6 hPa | 0 mm | - | 93 W/m² | - |
| 1777756248 | 13.89° C | 60% | 1021.2 hPa | 0 mm | - | 95 W/m² | - |
| 1777755945 | 13.89° C | 60% | 1021.2 hPa | 0 mm | - | 124 W/m² | - |
| 1777755642 | 14.44° C | 62% | 1021.2 hPa | 0 mm | - | 144 W/m² | - |
| 1777755339 | 15° C | 57% | 1020.9 hPa | 0 mm | - | 193 W/m² | - |
| 1777755036 | 15° C | 62% | 1021.2 hPa | 0 mm | - | 488 W/m² | - |
| 1777754733 | 15° C | 60% | 1021.6 hPa | 0 mm | - | 347 W/m² | - |
| 1777754431 | 14.44° C | 64% | 1021.6 hPa | 0 mm | - | 333 W/m² | - |
* Rain latest hour (hover to see other rain measurements)
** Current wind speed in m/s (hover to see current wind gust speed)